Wind_Speed
49 46 46 43 42 44 43 44 42 40 35 32 31 31 27 26 26 23 21 19 20 21 21 20 20 20 20 21 22 23 24 26 26 24 23 25 26 26 25 24 24 26 27
51 48 46 45 43 46 46 45 45 43 39 38 38 33 32 27 25 27 27 25 25 24 23 22 23 25 26 26 25 26 25 27 26 25 24 26 27 26 27 26 25 27 28
55 51 50 49 47 46 47 47 48 46 45 42 39 36 32 29 27 26 28 26 26 28 27 27 26 26 27 29 29 29 27 28 28 26 25 26 28 26 27 28 27 28 29
58 55 53 52 51 49 48 48 48 46 44 43 39 36 32 29 28 27 28 28 29 29 30 30 29 28 28 27 28 27 28 29 28 26 25 27 29 29 28 29 30 30 31
61 58 56 55 54 52 51 49 49 46 45 43 42 36 32 32 30 28 28 29 30 31 30 30 29 28 28 30 30 30 30 28 29 27 28 29 29 30 31 31 32 33 33
65 62 58 57 57 55 54 51 49 47 45 42 40 38 35 29 25 26 27 27 27 29 28 29 31 31 32 34 30 29 29 29 30 30 31 32 31 30 31 32 35 35 35
69 66 61 58 57 56 55 53 51 48 45 42 41 37 34 31 28 27 26 28 27 28 28 28 27 28 29 30 30 30 29 29 30 31 30 32 31 31 31 32 34 35 36
72 68 64 60 57 56 55 54 51 49 46 45 42 39 36 34 33 28 29 28 29 29 27 27 25 24 23 24 24 25 25 26 26 27 28 30 30 30 31 33 35 36 37
74 70 67 62 59 56 55 54 53 50 47 45 42 40 34 28 27 29 29 28 29 27 24 22 21 21 21 22 23 24 25 25 25 25 26 28 28 29 30 34 37 38 39
75 72 69 65 63 59 56 53 51 51 49 45 40 38 36 35 29 30 30 28 27 26 24 23 22 23 23 23 23 24 27 28 27 28 29 29 30 32 34 35 36 38 40
76 75 71 68 65 61 58 54 52 51 47 45 42 42 41 39 37 35 33 31 27 26 27 26 25 25 26 27 27 29 29 29 30 32 32 32 33 35 35 36 38 39 39
79 77 76 73 68 64 61 58 54 50 46 46 47 46 45 46 41 38 37 34 30 30 29 28 29 30 31 31 31 32 33 34 34 35 35 36 37 37 37 38 39 40 41
79 77 79 75 74 70 65 61 60 56 53 49 48 48 45 43 39 39 38 34 32 32 32 32 33 36 38 38 37 36 37 39 39 39 38 39 41 42 42 42 41 42 42
55 69 77 83 78 76 70 66 63 60 59 55 52 49 49 43 39 38 34 34 34 36 39 38 39 40 41 40 40 42 42 42 42 42 43 43 45 45 45 46 44 44 48
61 61 63 66 80 78 73 68 67 64 61 58 54 51 49 46 42 37 37 37 37 38 41 43 44 43 42 43 44 47 47 46 45 45 46 48 49 50 50 49 49 52 52
50 57 63 66 74 77 76 73 68 65 61 60 57 52 51 51 48 43 40 42 41 41 41 41 44 44 46 46 48 49 49 50 51 51 53 52 53 53 52 53 52 53 51
68 44 47 56 69 77 70 73 71 64 61 60 59 58 56 54 50 51 48 47 48 47 48 49 49 49 47 47 51 53 55 55 56 55 55 57 57 56 59 59 55 56 56
51 54 50 50 55 68 70 74 72 71 60 53 54 51 52 48 50 51 53 53 52 51 53 55 56 56 54 57 57 59 61 62 61 65 64 63 65 65 63 63 62 63 65
78 65 53 51 58 57 56 60 67 71 69 60 53 54 54 55 54 53 53 57 58 56 57 56 57 56 56 60 62 63 63 62 64 66 70 69 68 67 65 66 71 74 66
93 88 72 66 65 62 56 57 64 66 67 62 61 62 61 59 64 63 67 65 63 63 62 63 64 63 65 68 68 67 68 70 71 72 72 70 71 69 72 76 72 65 59
94 89 95 93 85 73 70 67 67 67 66 63 64 67 73 76 72 73 75 70 68 66 66 67 67 70 71 72 75 74 71 71 66 69 72 74 74 77 75 72 71 58 58
91 92 85 83 79 77 71 67 60 63 69 70 69 73 74 74 73 69 67 68 71 64 61 63 65 70 72 74 73 72 71 70 71 73 73 74 75 75 74 71 60 61 68
91 80 73 84 76 55 60 67 62 59 65 71 71 70 70 72 73 72 66 67 69 71 73 76 77 73 72 70 69 70 71 72 75 76 73 69 71 71 66 58 62 76 71
55 54 61 56 58 53 52 58 59 50 55 58 58 59 58 58 62 58 60 65 65 63 63 63 62 62 65 68 71 73 73 74 74 68 74 71 76 70 69 67 77 75 73
67 67 48 61 56 42 39 38 40 45 50 54 60 61 60 61 66 69 66 59 58 59 57 61 62 64 68 68 71 72 67 66 68 62 74 75 76 70 75 83 80 81 78
88 74 81 58 60 48 38 41 38 51 48 51 59 57 60 65 68 63 55 53 51 51 54 54 58 62 67 72 69 70 72 73 70 75 71 81 73 80 82 92 90 87 85
Wind_Direction
232 236 236 235 235 237 239 242 242 240 244 249 256 257 262 261 261 263 267 272 277 281 285 291 297 299 303 309 316 318 316 320 322 321 322 324 327 329 331 329 326 322 323
230 235 237 236 235 236 239 243 246 244 245 251 260 261 271 270 263 264 269 272 276 280 285 287 291 297 302 308 309 311 311 317 317 317 316 320 323 325 323 323 323 321 319
226 230 235 233 232 234 238 242 247 247 247 253 260 265 270 270 269 266 266 269 274 280 282 286 287 293 296 301 304 307 306 313 313 312 313 315 320 325 321 320 320 319 320
226 228 232 234 234 234 236 241 246 251 254 258 261 266 267 269 266 267 267 270 270 271 276 281 285 287 293 296 303 304 304 310 312 309 310 313 317 320 320 317 317 317 318
227 226 229 232 234 235 235 239 244 247 251 255 260 262 265 266 265 268 269 266 270 274 275 277 281 285 290 296 300 299 300 304 307 306 306 311 316 315 316 317 315 317 318
226 226 227 231 233 235 236 239 243 246 250 254 258 263 266 262 269 268 273 274 273 276 280 281 282 282 286 291 291 293 297 301 303 305 307 311 314 313 312 314 317 315 318
226 227 225 228 233 236 239 242 244 247 250 254 257 262 261 268 277 280 275 276 278 279 281 285 288 287 288 291 289 293 296 302 304 307 309 313 316 316 313 316 318 315 316
226 226 227 227 231 235 240 243 245 248 251 256 260 262 267 272 275 276 275 277 279 283 287 287 288 291 295 295 297 301 303 306 308 311 313 316 316 317 317 319 320 319 317
226 226 227 227 230 233 238 242 245 247 250 253 257 262 262 271 270 274 275 278 281 281 279 282 289 295 298 302 305 308 312 314 314 313 314 315 317 317 317 314 316 317 319
226 227 228 228 229 232 236 240 245 249 249 252 254 256 260 263 268 277 276 279 280 274 273 278 287 290 294 296 300 305 309 309 311 311 313 314 316 317 317 318 317 317 317
229 229 229 230 232 232 235 238 244 247 248 248 251 255 259 264 267 272 273 277 275 274 277 278 284 287 292 296 299 302 304 306 307 308 308 308 310 312 314 314 316 317 317
228 229 229 232 234 233 234 237 240 243 247 249 251 255 259 266 267 266 268 272 271 274 277 280 284 289 295 296 297 299 301 301 302 305 304 307 309 311 311 311 313 313 313
234 237 232 232 235 235 234 236 239 241 245 249 252 255 263 266 267 267 265 268 270 274 276 279 282 288 294 294 297 299 301 303 307 306 306 306 308 309 308 309 310 313 312
236 238 240 238 235 234 234 235 238 241 245 248 251 257 263 264 266 266 264 268 272 276 279 278 282 289 294 295 297 300 302 303 303 304 305 303 305 306 306 308 307 309 311
234 241 241 234 232 232 234 236 238 241 244 248 252 256 261 261 265 258 271 272 274 277 279 278 281 286 288 289 292 296 299 299 300 299 301 301 301 302 304 302 306 308 306
220 227 234 235 231 233 234 236 239 242 244 248 249 255 260 260 263 262 265 266 268 273 276 278 282 284 286 291 292 295 298 297 298 299 302 302 303 303 303 304 305 307 306
207 219 227 223 228 230 235 237 238 241 245 248 248 255 258 257 256 259 262 264 267 269 272 275 280 284 286 290 293 295 295 296 297 298 298 300 301 300 302 304 302 304 307
196 206 211 217 223 229 235 237 239 241 244 247 250 255 248 252 258 259 264 267 268 270 271 275 279 283 284 288 293 292 295 295 294 295 297 298 298 299 301 302 303 305 306
213 206 213 221 222 225 235 238 242 242 243 246 250 248 248 255 265 264 267 269 268 269 275 277 280 282 284 288 290 289 290 292 293 293 295 295 297 299 298 300 303 305 310
214 215 215 223 230 234 239 242 244 246 250 249 259 253 248 262 272 268 278 277 273 272 273 276 279 281 283 285 288 290 287 287 288 292 293 293 296 296 300 303 306 309 310
213 218 224 226 233 235 236 241 251 258 262 266 266 264 266 270 273 272 278 278 275 272 276 276 278 281 283 287 289 288 284 285 283 286 289 293 294 298 300 303 308 308 310
220 220 227 230 235 238 245 256 263 267 265 265 268 268 270 272 273 275 274 275 273 274 266 268 273 280 283 284 281 281 281 282 284 286 290 292 294 296 298 303 304 306 310
214 217 228 236 239 242 243 254 256 261 262 263 262 264 266 267 268 267 265 261 263 265 268 274 275 278 277 278 278 278 280 281 284 287 289 293 298 298 299 298 305 309 309
197 211 218 229 231 239 246 255 260 258 257 255 256 261 265 263 261 263 259 263 268 274 274 273 273 274 272 273 276 277 280 282 283 288 296 296 300 297 299 303 306 306 305
185 196 195 222 218 223 226 241 243 248 250 251 255 259 262 263 264 270 269 266 270 273 267 278 276 276 279 279 283 287 290 291 294 288 298 301 303 302 302 305 307 306 302
189 189 192 198 195 206 206 220 236 245 243 246 252 250 259 259 262 261 260 264 265 259 264 263 265 271 277 281 284 287 291 293 291 292 294 300 297 299 300 303 302 301 302
Height
10889 10894 10898 10902 10905 10908 10912 10914 10918 10921 10924 10927 10929 10931 10933 10934 10935 10937 10938 10938 10939 10939 10939 10939 10938 10937 10936 10935 10934 10932 10931 10929 10926 10925 10922 10920 10917 10915 10912 10909 10906 10903 10900
10885 10889 10893 10897 10900 10903 10906 10909 10912 10916 10919 10922 10924 10927 10929 10930 10932 10933 10934 10934 10935 10935 10936 10936 10935 10934 10933 10932 10930 10929 10927 10925 10923 10921 10919 10917 10915 10912 10910 10906 10903 10900 10897
10875 10881 10885 10889 10893 10897 10901 10904 10906 10910 10913 10916 10919 10921 10923 10925 10927 10929 10929 10930 10930 10931 10931 10931 10932 10931 10930 10929 10928 10926 10924 10922 10920 10918 10916 10914 10912 10909 10907 10904 10900 10897 10894
10868 10872 10878 10882 10886 10891 10896 10899 10901 10905 10909 10911 10914 10917 10919 10921 10923 10923 10924 10925 10926 10927 10927 10927 10927 10927 10926 10925 10924 10922 10921 10918 10916 10915 10912 10911 10908 10906 10904 10901 10897 10894 10891
10860 10864 10871 10875 10879 10884 10890 10894 10897 10901 10904 10907 10910 10913 10915 10917 10919 10919 10920 10921 10921 10922 10922 10922 10921 10922 10921 10921 10920 10919 10917 10915 10913 10911 10909 10907 10905 10903 10900 10897 10894 10891 10887
10851 10857 10863 10868 10873 10877 10882 10887 10891 10895 10898 10902 10905 10908 10911 10913 10914 10915 10916 10916 10917 10917 10918 10917 10917 10917 10917 10916 10915 10914 10912 10911 10909 10907 10905 10903 10901 10898 10896 10893 10890 10887 10883
10840 10848 10856 10862 10867 10872 10877 10882 10886 10890 10893 10896 10899 10903 10905 10907 10908 10910 10912 10912 10913 10913 10913 10912 10912 10912 10911 10911 10910 10909 10908 10907 10906 10904 10902 10899 10897 10894 10891 10889 10886 10883 10879
10832 10840 10848 10855 10860 10865 10871 10876 10880 10884 10888 10891 10894 10897 10900 10902 10903 10905 10907 10907 10908 10908 10908 10908 10907 10907 10907 10906 10906 10905 10904 10903 10901 10900 10898 10895 10893 10890 10888 10885 10882 10878 10875
10821 10832 10840 10847 10854 10859 10864 10869 10874 10878 10882 10886 10889 10891 10894 10896 10898 10900 10901 10902 10903 10903 10903 10903 10903 10903 10903 10902 10902 10901 10900 10899 10897 10895 10893 10891 10889 10886 10883 10881 10877 10874 10871
10813 10823 10832 10840 10846 10852 10858 10864 10869 10873 10876 10881 10883 10885 10888 10891 10893 10894 10896 10897 10898 10898 10899 10898 10898 10899 10898 10898 10897 10896 10895 10894 10893 10891 10889 10887 10885 10882 10880 10877 10874 10870 10867
10804 10814 10824 10831 10838 10845 10851 10857 10862 10866 10870 10874 10878 10880 10882 10885 10887 10889 10890 10891 10893 10894 10894 10893 10893 10893 10893 10892 10892 10891 10890 10889 10887 10886 10884 10882 10880 10878 10875 10872 10869 10866 10862
10794 10803 10813 10821 10830 10837 10844 10850 10855 10859 10863 10867 10871 10874 10877 10879 10881 10883 10884 10886 10887 10889 10889 10888 10888 10888 10887 10887 10886 10885 10884 10883 10882 10880 10879 10877 10875 10873 10870 10867 10864 10860 10857
10786 10791 10801 10810 10818 10827 10834 10841 10847 10851 10855 10860 10864 10868 10871 10874 10875 10877 10878 10880 10881 10883 10883 10883 10882 10881 10881 10881 10880 10879 10878 10877 10876 10874 10872 10870 10869 10867 10864 10862 10859 10855 10852
10775 10778 10788 10799 10807 10815 10823 10831 10837 10843 10847 10853 10857 10862 10865 10868 10870 10871 10872 10873 10875 10876 10877 10877 10877 10875 10874 10872 10872 10871 10871 10869 10868 10866 10865 10863 10861 10859 10856 10855 10852 10849 10845
10763 10767 10773 10782 10792 10803 10813 10821 10828 10834 10840 10845 10850 10855 10858 10861 10863 10865 10866 10867 10868 10869 10869 10869 10869 10868 10867 10866 10865 10864 10863 10862 10861 10859 10857 10855 10853 10850 10848 10847 10845 10843 10838
10747 10755 10761 10768 10779 10792 10802 10810 10818 10826 10832 10837 10842 10847 10850 10853 10856 10858 10859 10860 10861 10861 10861 10860 10860 10859 10859 10858 10857 10856 10854 10853 10851 10850 10847 10845 10844 10841 10839 10838 10836 10833 10829
10740 10743 10749 10756 10770 10782 10791 10801 10811 10818 10822 10828 10834 10839 10842 10845 10847 10850 10851 10851 10852 10852 10851 10851 10851 10851 10851 10849 10848 10846 10845 10844 10843 10841 10837 10835 10834 10832 10829 10828 10827 10825 10820
10731 10740 10742 10751 10760 10772 10783 10793 10802 10808 10814 10820 10827 10830 10833 10836 10838 10840 10842 10843 10843 10843 10841 10842 10843 10842 10842 10840 10838 10836 10835 10834 10832 10831 10828 10825 10824 10822 10819 10817 10814 10814 10812
10722 10729 10737 10743 10753 10766 10777 10784 10791 10797 10805 10814 10819 10822 10824 10827 10830 10832 10833 10833 10833 10833 10833 10832 10832 10832 10831 10830 10827 10826 10824 10821 10819 10819 10817 10814 10812 10810 10808 10804 10803 10799 10799
10708 10723 10730 10736 10749 10761 10769 10774 10781 10790 10798 10810 10812 10815 10815 10818 10821 10822 10822 10822 10822 10822 10822 10821 10821 10821 10820 10817 10816 10816 10814 10811 10807 10805 10803 10802 10800 10799 10797 10794 10793 10790 10786
10707 10716 10726 10734 10745 10757 10764 10769 10777 10784 10791 10798 10803 10806 10807 10808 10808 10809 10809 10809 10809 10809 10808 10808 10809 10808 10807 10805 10803 10802 10800 10797 10796 10794 10792 10790 10789 10788 10786 10785 10783 10779 10776
10707 10714 10721 10732 10740 10752 10763 10770 10774 10776 10781 10786 10790 10791 10792 10792 10792 10793 10794 10794 10794 10794 10793 10795 10795 10795 10794 10791 10789 10786 10785 10786 10783 10781 10781 10780 10779 10776 10775 10774 10771 10769 10765
10694 10707 10720 10729 10739 10748 10754 10758 10765 10769 10773 10776 10775 10774 10775 10776 10777 10778 10777 10775 10778 10779 10781 10784 10782 10780 10777 10775 10773 10773 10772 10773 10771 10768 10769 10770 10767 10765 10764 10762 10759 10756 10750
10691 10704 10718 10726 10733 10740 10745 10751 10755 10760 10761 10761 10762 10761 10762 10759 10761 10761 10761 10763 10767 10769 10768 10768 10765 10762 10761 10759 10760 10760 10761 10762 10760 10758 10753 10754 10752 10751 10749 10747 10745 10741 10737
10679 10693 10706 10715 10726 10732 10741 10744 10745 10744 10743 10748 10749 10750 10751 10749 10746 10749 10750 10752 10755 10754 10753 10752 10746 10745 10746 10747 10747 10749 10749 10749 10748 10746 10742 10736 10733 10731 10731 10732 10727 10726 10722
10662 10675 10684 10697 10710 10725 10731 10734 10739 10734 10737 10737 10738 10740 10740 10738 10737 10738 10739 10739 10738 10737 10738 10742 10736 10733 10732 10734 10735 10733 10735 10736 10734 10734 10731 10727 10722 10717 10715 10713 10711 10711 10709